Baltimore Martin, MD

4:07 AM EDT on September 21, 2017 (GMT -0400)
Martin State

Weather History for KMTN - April, 2014

Change the Weather History Date:

Friday, April 11, 2014

  Actual Average Record
Temperature  
Mean Temperature 60 °F -  
Max Temperature 73 °F 59 °F 80 °F (2013)
Min Temperature 48 °F 42 °F 32 °F (2007)
Degree Days  
Heating Degree Days 4    
Growing Degree Days 10 (Base 50)    
Moisture  
Dew Point 47 °F    
Average Humidity 69    
Maximum Humidity 94    
Minimum Humidity 38    
Precipitation  
Precipitation 0.00 in - - ()
Sea Level Pressure  
Sea Level Pressure 30.02 in    
Wind  
Wind Speed 5 mph (SE)    
Max Wind Speed 14 mph    
Max Gust Speed 23 mph    
Visibility 10 miles    
Events Rain    
Averages and records for this station are not official NWS values.
T = Trace of Precipitation, MM = Missing Value Source: NWS Daily Summary

Daily Weather History Graph

Daily Weather History Graph

Search for Another Location

Airport or City:

Trip Planner

Search our weather history database for the weather conditions in past years. The results will help you decide how hot, cold, wet, or windy it might be!

Date:

Astronomy

Apr. 11, 2014 Rise Set
Actual Time 6:34 AM EDT 7:39 PM EDT
Civil Twilight 6:07 AM EDT 8:06 PM EDT
Nautical Twilight 5:34 AM EDT 8:39 PM EDT
Astronomical Twilight 5:00 AM EDT 9:13 PM EDT
Moon 4:18 PM EDT (4/11) 4:27 AM EDT (4/11)
Length of Visible Light 13h 59m
Length of Day
13h 04m
Waxing Gibbous, 87% of the Moon is Illuminated
Apr 11
Waxing Gibbous
Apr 15
Full
Apr 22
Last Quarter
Apr 29
New
May 6
First Quarter

Hourly Weather History & Observations

Time (EDT) Temp. Dew Point Humidity Pressure Visibility Wind Dir Wind Speed Gust Speed Precip Events Conditions
12:18 AM 53.6 °F 42.8 °F 67% 30.05 in 10.0 mi South 4.6 mph - N/A   Clear
12:39 AM 53.6 °F 42.8 °F 67% 30.05 in 10.0 mi SE 5.8 mph - N/A   Clear
12:57 AM 51.8 °F 44.6 °F 76% 30.04 in 10.0 mi SE 4.6 mph - N/A   Clear
1:18 AM 51.8 °F 44.6 °F 76% 30.03 in 10.0 mi SE 5.8 mph - N/A   Clear
1:39 AM 53.6 °F 44.6 °F 72% 30.02 in 10.0 mi SSE 6.9 mph - N/A   Clear
1:57 AM 53.6 °F 44.6 °F 72% 30.02 in 10.0 mi SSE 8.1 mph - N/A   Clear
2:18 AM 53.6 °F 46.4 °F 77% 30.01 in 10.0 mi SSE 8.1 mph - N/A   Clear
2:39 AM 53.6 °F 46.4 °F 77% 30.00 in 10.0 mi SSE 6.9 mph - N/A   Clear
2:57 AM 53.6 °F 46.4 °F 77% 30.00 in 10.0 mi SSE 4.6 mph - N/A   Clear
3:18 AM 53.6 °F 44.6 °F 72% 30.00 in 10.0 mi Calm Calm - N/A   Clear
3:39 AM 51.8 °F 44.6 °F 76% 30.00 in 10.0 mi Calm Calm - N/A   Clear
3:54 AM 51.8 °F 46.4 °F 82% 30.00 in 10.0 mi Calm Calm - N/A   Clear
4:18 AM 51.8 °F 46.4 °F 82% 30.00 in 10.0 mi Calm Calm - N/A   Clear
4:39 AM 51.8 °F 46.4 °F 82% 30.01 in 10.0 mi Calm Calm - N/A   Clear
4:57 AM 50.0 °F 46.4 °F 87% 30.01 in 10.0 mi Calm Calm - N/A   Clear
5:18 AM 50.0 °F 46.4 °F 87% 30.01 in 10.0 mi East 3.5 mph - N/A   Clear
5:30 AM 50.0 °F 48.2 °F 94% 30.02 in 10.0 mi ESE 4.6 mph - N/A   Clear
6:45 AM 48.2 °F 46.4 °F 93% 30.05 in 10.0 mi Calm Calm - N/A   Mostly Cloudy
7:45 AM 55.4 °F 48.2 °F 77% 30.06 in 10.0 mi SE 3.5 mph - N/A   Mostly Cloudy
8:45 AM 57.2 °F 50.0 °F 77% 30.07 in 10.0 mi ESE 4.6 mph - N/A   Mostly Cloudy
9:45 AM 62.6 °F 48.2 °F 59% 30.07 in 10.0 mi ESE 3.5 mph - N/A   Mostly Cloudy
10:45 AM 62.6 °F 48.2 °F 59% 30.07 in 10.0 mi ESE 6.9 mph - N/A   Overcast
11:45 AM 64.4 °F 48.2 °F 56% 30.05 in 10.0 mi SE 11.5 mph - N/A   Overcast
12:45 PM 69.8 °F 48.2 °F 46% 30.02 in 10.0 mi SE 10.4 mph - N/A   Mostly Cloudy
1:50 PM 69.8 °F 48.2 °F 46% 29.99 in 10.0 mi SE 12.7 mph - N/A   Mostly Cloudy
2:45 PM 71.6 °F 48.2 °F 43% 29.98 in 10.0 mi SE 10.4 mph - N/A   Mostly Cloudy
3:45 PM 73.4 °F 46.4 °F 38% 29.95 in 10.0 mi SE 13.8 mph - N/A   Scattered Clouds
4:45 PM 71.6 °F 48.2 °F 43% 29.94 in 10.0 mi SE 9.2 mph - N/A   Scattered Clouds
5:45 PM 68.0 °F 50.0 °F 52% 29.93 in 10.0 mi SE 6.9 mph - N/A   Scattered Clouds
6:50 PM 69.8 °F 51.8 °F 53% 29.99 in 10.0 mi NW 9.2 mph 23.0 mph N/A   Scattered Clouds
7:55 PM 66.2 °F 51.8 °F 60% 30.02 in 10.0 mi NW 6.9 mph 20.7 mph N/A   Mostly Cloudy
8:45 PM 62.6 °F 55.4 °F 77% 30.05 in 10.0 mi NW 5.8 mph - N/A Rain Light Rain